Location: Latina
(41.4670°N, 12.8670°E)
Time: 22:55:25
(UTC+02:00)

ISS - Pass Details

Date: 14 May 2021
Orbit: 417 x 422 km, 51.6° (Epoch: 22 June)

Event Time Altitude Azimuth Distance (km) Brightness Sun altitude
Rises 21:13:11 0° 200° (SSW) 2,344 -0.1 -9.4°
Reaches altitude 10° 21:15:36 10° 183° (S) 1,487 -1.3 -9.7°
Maximum altitude 21:18:09 20° 133° (SE) 1,016 -2.4 -10.1°
Drops below altitude 10° 21:20:43 10° 83° (E) 1,497 -1.4 -10.5°
Enters shadow 21:22:51 - 68° (ENE) 2,248 -0.4 -10.8°
